Regional Weather Roundup
Issued by NWS

Home | Current Version | Previous Version | Graphics & Text | Print | Product List | Glossary On
Versions: 1 2 3 4 5 6 7 8 9 10 11 12 13 14 15 16 17 18 19 20 21 22 23 24 25 26 27 28 29 30 31 32 33 34 35 36 37 38 39 40 41 42 43 44 45 46 47 48 49 50
000
ASUS43 KLOT 141103
RWRIL

ILLINOIS REGIONAL WEATHER ROUNDUP
NATIONAL WEATHER SERVICE CHICAGO/ROMEOVILLE IL
500 AM CST THU DEC 14 2017

NOTE: "FAIR" INDICATES FEW OR NO CLOUDS BELOW 12,000 FEET WITH NO
SIGNIFICANT WEATHER AND/OR OBSTRUCTIONS TO VISIBILITY.

* THESE STATIONS ARE NOT UNDER NWS QUALITY CONTROL. THEY ALSO MAY NOT
  REPORT WEATHER SUCH AS PRECIPITATION OR FOG.

ILZ001-002-007-009-015-016-024-141200-
NORTHWEST ILLINOIS

CITY           SKY/WX    TMP DP  RH WIND       PRES   REMARKS
MOLINE         CLOUDY    24  15  68 N6        30.00R WCI  17
STERLING*        N/A     18  11  74 N7        30.01  WCI   9
SAVANNA*       CLOUDY    21  13  71 NE7       30.01S WCI  12
$$

ILZ003-004-008-010-011-017-018-141200-
NORTH CENTRAL ILLINOIS

CITY           SKY/WX    TMP DP  RH WIND       PRES   REMARKS
ROCKFORD       PTCLDY    14   8  77 N8        30.00R WCI   3
FREEPORT*      CLOUDY    11   6  82 NW6       30.00S WCI   1
ROCHELLE*      PTCLDY    15  10  81 NW6       29.99R WCI   6
DE KALB*       PTCLDY    14   9  81 N9        29.97R WCI   2
PERU*          PTCLDY    17  11  77 NW8       30.00R WCI   6
$$

ILZ005-006-012>014-019>023-141200-
NORTHEAST ILLINOIS

CITY           SKY/WX    TMP DP  RH WIND       PRES   REMARKS
CHICAGO-OHARE  MOCLDY    18  10  71 NW12      29.95R WCI   5
CHICAGO-MIDWAY FLURRIES  21  13  71 NW12      29.95R WCI   9
AURORA         PTCLDY    15  10  80 NW10      29.97R WCI   2
LANSING*       CLOUDY    23  18  80 NW8       29.94R WCI  14
JOLIET*        PTCLDY    19  14  79 NW7       29.97R WCI  10
WAUKEGAN       CLEAR     14   9  80 NW8       29.94R WCI   3
DUPAGE AIRPORT PTCLDY    15  11  83 N10       29.96R WCI   2
KANKAKEE*      CLOUDY    22  16  78 NW8       29.96R WCI  12
WHEELING       CLEAR     17  11  77 NW10      29.98R WCI   5
MORRIS*        PTCLDY    17  11  80 N6        29.97R WCI   8
ROMEOVILLE*    PTCLDY    17  13  84 NW8       29.97R WCI   6
$$

LMZ740>746-141200-
SOUTHERN LAKE MICHIGAN

STATION/POSITION SKY/WX   TEMP    WIND        PRES    VSBY  WAVE
                          AIR SEA DIR/SP/G                  HT/PER
                          (F)     (DEG/KT/KT) (MB)    (MI)  (FT/S)
HARRISON CRIB              22     320/ 16/ 17   N/A
BURNHAM HARBOR             23     270/  4/ 13   N/A
CALUMET HARBOR             22     290/  8/ 11 1013.0R
BURNS HARBOR               29      30/ 15/ 19 1013.2R
MICHIGAN CITY              23      80/  8/ 11   N/A
$$

ILZ025>027-034>036-040-047-049-050-058-095>099-141200-
WEST-CENTRAL ILLINOIS

CITY           SKY/WX    TMP DP  RH WIND       PRES   REMARKS
QUINCY         CLOUDY    27  18  69 N12       29.98S WCI  17
MACOMB*        CLOUDY    26  18  71 N6        30.01S WCI  20
JACKSONVILLE*  CLOUDY    27  16  64 NW6       29.98S WCI  20
PITTSFIELD*    CLOUDY    29  19  67 N7        29.99R WCI  22
$$

ILZ028>032-037-038-041>044-048-051>054-059>061-141200-
CENTRAL ILLINOIS

CITY           SKY/WX    TMP DP  RH WIND       PRES   REMARKS
PONTIAC        PTCLDY    19  16  88 NW9       29.98R WCI   8
BLOOMINGTON    CLOUDY    21  16  81 N10       29.97R WCI  10
DECATUR        CLOUDY    26  17  68 N14       29.96R WCI  14
PEORIA         CLEAR     22  15  75 N5        29.99R WCI  16
LACON*         PTCLDY    21  14  74 N7        30.00R WCI  12
LINCOLN*       CLOUDY    25  18  76 N6        29.98R WCI  18
SPRINGFIELD    CLOUDY    28  18  66 N8        29.98R WCI  20
TAYLORVILLE    CLOUDY    28  17  65 N7        29.97S WCI  20
$$

ILZ033-039-045-046-055>057-062-063-141200-
EAST-CENTRAL ILLINOIS

CITY           SKY/WX    TMP DP  RH WIND       PRES   REMARKS
CHAMPAIGN      CLOUDY    26  18  71 N14       29.94R WCI  14
DANVILLE*      CLOUDY    27  20  75 NW10      29.91R WCI  17
RANTOUL*       CLOUDY    27  20  75 NW9       29.94R WCI  18
MATTOON        CLOUDY    28  18  66 NW12      29.95R WCI  18
PARIS*         CLOUDY    28  20  73 NW13      29.94R WCI  17
$$

ILZ079-100>102-141200-
SOUTHWEST ILLINOIS

CITY           SKY/WX    TMP DP  RH WIND       PRES   REMARKS
ALTON          CLOUDY    30  21  69 N6        29.98R WCI  24
CAHOKIA*       CLOUDY    33  21  61 N12       29.97R WCI  24
SPARTA*        CLOUDY    32  25  74 N12G17    29.96R WCI  23
$$

ILZ064>066-069>071-074>076-080>082-084>086-088>090-092>094-141200-
SOUTH-CENTRAL ILLINOIS

CITY           SKY/WX    TMP DP  RH WIND       PRES   REMARKS
CARBONDALE     CLOUDY    35  25  66 N8        29.95R WCI  29
CAIRO*         CLEAR     33  25  70 CALM      29.94R
EFFINGHAM*     CLOUDY    29  20  69 N8        29.97S WCI  21
MARION         CLOUDY    37  25  62 N9        29.95R WCI  30
MT. VERNON     CLOUDY    31  21  66 N7        29.95R WCI  24
CENTRALIA*     CLOUDY    32  22  66 N12       29.94R WCI  23
SALEM*         CLOUDY    31  20  62 N16       29.94S WCI  20
METROPOLIS*    CLOUDY    37  26  65 N6        29.94R WCI  32
$$

ILZ067-068-072-073-078-083-087-091-141200-
SOUTHEAST ILLINOIS

CITY           SKY/WX    TMP DP  RH WIND       PRES   REMARKS
LAWRENCEVILLE  CLOUDY    28  19  69 NW9       29.96R WCI  19
FLORA*         CLOUDY    31  20  64 N8        29.96R WCI  23
FAIRFIELD*     CLOUDY    31  21  67 N7        29.94R WCI  24
HARRISBURG*    CLOUDY    34  24  67 N10       29.96R WCI  26
ROBINSON*      CLOUDY    28  20  72 NW8       29.96S WCI  20
CARMI*         CLOUDY    32  22  68 N13       29.94R WCI  22
$$

ABBREVIATIONS USED IN REMARKS
   TC - TEMPERATURE IN CELSIUS
  WCI - WIND CHILL INDEX
   HX - HEAT INDEX
  VSB - VISIBILITY
$$





USA.gov is the U.S. government's official web portal to all federal, state and local government web resources and services.